Time,TemperatureF,DewpointF,PressureIn,WindDirection,WindDirectionDegrees,WindSpeedMPH,WindSpeedGustMPH,Humidity,HourlyPrecipIn,Conditions,Clouds,dailyrainin,SoftwareType,DateUTC
2013-01-24 00:00:00,4.0,-8.9,30.21,NNW,337,6.0,14.0,54,0.00,,,0.00,Weather View 32 v70,2013-01-24 05:00:00,
2013-01-24 00:01:00,4.0,-9.7,30.21,NW,315,3.0,14.0,52,0.00,,,0.00,Weather View 32 v70,2013-01-24 05:01:00,
2013-01-24 00:03:00,4.0,-9.7,30.21,SW,225,1.0,14.0,52,0.00,,,0.00,Weather View 32 v70,2013-01-24 05:03:00,
2013-01-24 00:08:00,4.0,-9.3,30.21,NW,315,4.0,14.0,53,0.00,,,0.00,Weather View 32 v70,2013-01-24 05:08:00,
2013-01-24 00:14:00,4.0,-9.3,30.21,WNW,292,0.0,14.0,53,0.00,,,0.00,Weather View 32 v70,2013-01-24 05:14:00,
2013-01-24 00:19:00,4.0,-9.3,30.21,NW,315,5.0,14.0,53,0.00,,,0.00,Weather View 32 v70,2013-01-24 05:19:00,
2013-01-24 00:24:00,4.0,-8.9,30.20,NNW,337,0.0,14.0,54,0.00,,,0.00,Weather View 32 v70,2013-01-24 05:24:00,
2013-01-24 00:29:00,3.0,-9.9,30.20,NNW,337,0.0,14.0,54,0.00,,,0.00,Weather View 32 v70,2013-01-24 05:29:00,
2013-01-24 00:34:00,3.0,-9.1,30.20,West,270,4.0,14.0,56,0.00,,,0.00,Weather View 32 v70,2013-01-24 05:34:00,
2013-01-24 00:39:00,3.0,-9.1,30.20,NW,315,8.0,14.0,56,0.00,,,0.00,Weather View 32 v70,2013-01-24 05:39:00,
2013-01-24 00:44:00,3.0,-8.8,30.21,NW,315,5.0,15.0,57,0.00,,,0.00,Weather View 32 v70,2013-01-24 05:44:00,
2013-01-24 00:49:00,3.0,-8.8,30.21,NNW,337,2.0,15.0,57,0.00,,,0.00,Weather View 32 v70,2013-01-24 05:49:00,
2013-01-24 00:54:00,3.0,-8.8,30.21,NW,315,0.0,15.0,57,0.00,,,0.00,Weather View 32 v70,2013-01-24 05:54:00,
2013-01-24 00:59:00,3.0,-8.8,30.21,WSW,247,0.0,15.0,57,0.00,,,0.00,Weather View 32 v70,2013-01-24 05:59:00,
2013-01-24 01:04:00,3.0,-8.8,30.21,NW,315,5.0,15.0,57,0.00,,,0.00,Weather View 32 v70,2013-01-24 06:04:00,
2013-01-24 01:09:00,3.0,-8.4,30.21,NW,315,7.0,15.0,58,0.00,,,0.00,Weather View 32 v70,2013-01-24 06:09:00,
2013-01-24 01:14:00,3.0,-9.1,30.21,NW,315,1.0,15.0,56,0.00,,,0.00,Weather View 32 v70,2013-01-24 06:14:00,
2013-01-24 01:19:00,3.0,-9.1,30.21,WNW,292,2.0,15.0,56,0.00,,,0.00,Weather View 32 v70,2013-01-24 06:19:00,
2013-01-24 01:24:00,3.0,-9.1,30.21,WNW,292,8.0,15.0,56,0.00,,,0.00,Weather View 32 v70,2013-01-24 06:24:00,
2013-01-24 01:29:00,3.0,-8.8,30.21,NW,315,2.0,15.0,57,0.00,,,0.00,Weather View 32 v70,2013-01-24 06:29:00,
2013-01-24 01:34:00,3.0,-8.8,30.21,NW,315,4.0,15.0,57,0.00,,,0.00,Weather View 32 v70,2013-01-24 06:34:00,
2013-01-24 01:39:00,3.0,-8.4,30.21,North,360,3.0,15.0,58,0.00,,,0.00,Weather View 32 v70,2013-01-24 06:39:00,
2013-01-24 01:44:00,3.0,-8.8,30.22,WNW,292,5.0,15.0,57,0.00,,,0.00,Weather View 32 v70,2013-01-24 06:44:00,
2013-01-24 01:49:00,3.0,-8.4,30.22,SSW,202,2.0,15.0,58,0.00,,,0.00,Weather View 32 v70,2013-01-24 06:49:00,
2013-01-24 01:54:00,2.0,-9.4,30.22,NW,315,0.0,15.0,58,0.00,,,0.00,Weather View 32 v70,2013-01-24 06:54:00,
2013-01-24 01:59:00,2.0,-9.0,30.22,WNW,292,2.0,15.0,59,0.00,,,0.00,Weather View 32 v70,2013-01-24 06:59:00,
2013-01-24 02:04:00,2.0,-9.0,30.21,ESE,112,1.0,15.0,59,0.00,,,0.00,Weather View 32 v70,2013-01-24 07:04:00,
2013-01-24 02:09:00,2.0,-9.0,30.21,WNW,292,6.0,15.0,59,0.00,,,0.00,Weather View 32 v70,2013-01-24 07:09:00,
2013-01-24 02:14:00,2.0,-9.0,30.21,WNW,292,2.0,12.0,59,0.00,,,0.00,Weather View 32 v70,2013-01-24 07:14:00,
2013-01-24 02:19:00,2.0,-9.7,30.21,SSW,202,2.0,19.0,57,0.00,,,0.00,Weather View 32 v70,2013-01-24 07:19:00,
2013-01-24 02:24:00,2.0,-9.7,30.21,North,360,0.0,19.0,57,0.00,,,0.00,Weather View 32 v70,2013-01-24 07:24:00,
2013-01-24 02:29:00,2.0,-9.7,30.21,NW,315,3.0,19.0,57,0.00,,,0.00,Weather View 32 v70,2013-01-24 07:29:00,
2013-01-24 02:34:00,2.0,-9.7,30.21,WNW,292,2.0,19.0,57,0.00,,,0.00,Weather View 32 v70,2013-01-24 07:34:00,
2013-01-24 02:39:00,2.0,-9.4,30.21,NNW,337,3.0,19.0,58,0.00,,,0.00,Weather View 32 v70,2013-01-24 07:39:00,
2013-01-24 02:45:00,2.0,-9.4,30.21,NW,315,3.0,19.0,58,0.00,,,0.00,Weather View 32 v70,2013-01-24 07:45:00,
2013-01-24 02:50:00,2.0,-9.4,30.21,NW,315,3.0,19.0,58,0.00,,,0.00,Weather View 32 v70,2013-01-24 07:50:00,
2013-01-24 02:55:00,2.0,-9.0,30.20,NNW,337,3.0,19.0,59,0.00,,,0.00,Weather View 32 v70,2013-01-24 07:55:00,
2013-01-24 03:00:00,2.0,-9.0,30.20,SSE,157,0.0,19.0,59,0.00,,,0.00,Weather View 32 v70,2013-01-24 08:00:00,
2013-01-24 03:05:00,2.0,-9.0,30.20,NW,315,4.0,19.0,59,0.00,,,0.00,Weather View 32 v70,2013-01-24 08:05:00,
2013-01-24 03:10:00,1.0,-10.0,30.20,WNW,292,6.0,19.0,59,0.00,,,0.00,Weather View 32 v70,2013-01-24 08:10:00,
2013-01-24 03:15:00,1.0,-9.6,30.20,NW,315,7.0,19.0,60,0.00,,,0.00,Weather View 32 v70,2013-01-24 08:15:00,
2013-01-24 03:20:00,1.0,-9.6,30.20,NW,315,3.0,19.0,60,0.00,,,0.00,Weather View 32 v70,2013-01-24 08:20:00,
2013-01-24 03:25:00,1.0,-9.3,30.20,SE,135,1.0,19.0,61,0.00,,,0.00,Weather View 32 v70,2013-01-24 08:25:00,
2013-01-24 03:30:00,1.0,-9.3,30.20,South,180,5.0,14.0,61,0.00,,,0.00,Weather View 32 v70,2013-01-24 08:30:00,
2013-01-24 03:35:00,1.0,-9.0,30.20,WNW,292,3.0,14.0,62,0.00,,,0.00,Weather View 32 v70,2013-01-24 08:35:00,
2013-01-24 03:40:00,1.0,-9.0,30.20,South,180,1.0,14.0,62,0.00,,,0.00,Weather View 32 v70,2013-01-24 08:40:00,
2013-01-24 03:45:00,1.0,-9.0,30.20,NW,315,0.0,14.0,62,0.00,,,0.00,Weather View 32 v70,2013-01-24 08:45:00,
2013-01-24 03:50:00,1.0,-9.3,30.20,WNW,292,0.0,14.0,61,0.00,,,0.00,Weather View 32 v70,2013-01-24 08:50:00,
2013-01-24 03:55:00,1.0,-9.0,30.20,NW,315,3.0,14.0,62,0.00,,,0.00,Weather View 32 v70,2013-01-24 08:55:00,
2013-01-24 04:00:00,1.0,-9.0,30.20,ESE,112,0.0,14.0,62,0.00,,,0.00,Weather View 32 v70,2013-01-24 09:00:00,
2013-01-24 04:05:00,1.0,-9.0,30.20,NW,315,4.0,14.0,62,0.00,,,0.00,Weather View 32 v70,2013-01-24 09:05:00,
2013-01-24 04:10:00,1.0,-9.0,30.20,South,180,1.0,14.0,62,0.00,,,0.00,Weather View 32 v70,2013-01-24 09:10:00,
2013-01-24 04:15:00,1.0,-9.0,30.20,NW,315,3.0,14.0,62,0.00,,,0.00,Weather View 32 v70,2013-01-24 09:15:00,
2013-01-24 04:20:00,0.0,-9.9,30.20,South,180,0.0,14.0,62,0.00,,,0.00,Weather View 32 v70,2013-01-24 09:20:00,
2013-01-24 04:25:00,0.0,-9.9,30.20,NW,315,6.0,14.0,62,0.00,,,0.00,Weather View 32 v70,2013-01-24 09:25:00,
2013-01-24 04:30:00,1.0,-9.0,30.20,East,90,0.0,12.0,62,0.00,,,0.00,Weather View 32 v70,2013-01-24 09:30:00,
2013-01-24 04:35:00,0.0,-9.6,30.20,NW,315,6.0,12.0,63,0.00,,,0.00,Weather View 32 v70,2013-01-24 09:35:00,
2013-01-24 04:40:00,0.0,-9.9,30.20,NW,315,0.0,12.0,62,0.00,,,0.00,Weather View 32 v70,2013-01-24 09:40:00,
2013-01-24 04:45:00,0.0,-9.3,30.20,NW,315,7.0,12.0,64,0.00,,,0.00,Weather View 32 v70,2013-01-24 09:45:00,
2013-01-24 04:50:00,0.0,-9.6,30.20,NW,315,4.0,12.0,63,0.00,,,0.00,Weather View 32 v70,2013-01-24 09:50:00,
2013-01-24 04:55:00,0.0,-9.6,30.20,WNW,292,4.0,12.0,63,0.00,,,0.00,Weather View 32 v70,2013-01-24 09:55:00,
2013-01-24 05:00:00,0.0,-9.6,30.20,SW,225,0.0,12.0,63,0.00,,,0.00,Weather View 32 v70,2013-01-24 10:00:00,
2013-01-24 05:05:00,0.0,-9.3,30.19,NNW,337,4.0,12.0,64,0.00,,,0.00,Weather View 32 v70,2013-01-24 10:05:00,
2013-01-24 05:10:00,0.0,-9.3,30.19,NW,315,0.0,12.0,64,0.00,,,0.00,Weather View 32 v70,2013-01-24 10:10:00,
2013-01-24 05:15:00,0.0,-9.6,30.20,NNW,337,7.0,12.0,63,0.00,,,0.00,Weather View 32 v70,2013-01-24 10:15:00,
2013-01-24 05:21:00,0.0,-9.3,30.20,NW,315,0.0,12.0,64,0.00,,,0.00,Weather View 32 v70,2013-01-24 10:21:00,
2013-01-24 05:26:00,0.0,-9.0,30.20,NW,315,5.0,12.0,65,0.00,,,0.00,Weather View 32 v70,2013-01-24 10:26:00,
2013-01-24 05:31:00,0.0,-9.0,30.20,NNW,337,2.0,10.0,65,0.00,,,0.00,Weather View 32 v70,2013-01-24 10:31:00,
2013-01-24 05:36:00,0.0,-8.6,30.20,NW,315,0.0,10.0,66,0.00,,,0.00,Weather View 32 v70,2013-01-24 10:36:00,
2013-01-24 05:41:00,0.0,-9.3,30.20,WNW,292,5.0,10.0,64,0.00,,,0.00,Weather View 32 v70,2013-01-24 10:41:00,
2013-01-24 05:46:00,0.0,-9.0,30.20,NNW,337,7.0,10.0,65,0.00,,,0.00,Weather View 32 v70,2013-01-24 10:46:00,
2013-01-24 05:51:00,0.0,-8.6,30.20,NW,315,4.0,10.0,66,0.00,,,0.00,Weather View 32 v70,2013-01-24 10:51:00,
2013-01-24 05:56:00,0.0,-9.0,30.20,NW,315,4.0,10.0,65,0.00,,,0.00,Weather View 32 v70,2013-01-24 10:56:00,
2013-01-24 06:01:00,0.0,-9.0,30.20,SSE,157,1.0,10.0,65,0.00,,,0.00,Weather View 32 v70,2013-01-24 11:01:00,
2013-01-24 06:06:00,0.0,-9.0,30.20,WNW,292,3.0,10.0,65,0.00,,,0.00,Weather View 32 v70,2013-01-24 11:06:00,
2013-01-24 06:11:00,-1.0,-9.6,30.20,South,180,1.0,11.0,66,0.00,,,0.00,Weather View 32 v70,2013-01-24 11:11:00,
2013-01-24 06:16:00,-1.0,-9.3,30.20,WNW,292,0.0,11.0,67,0.00,,,0.00,Weather View 32 v70,2013-01-24 11:16:00,
2013-01-24 06:21:00,-1.0,-9.3,30.20,WNW,292,1.0,11.0,67,0.00,,,0.00,Weather View 32 v70,2013-01-24 11:21:00,
2013-01-24 06:26:00,-1.0,-9.6,30.20,WNW,292,6.0,12.0,66,0.00,,,0.00,Weather View 32 v70,2013-01-24 11:26:00,
2013-01-24 06:31:00,-1.0,-9.3,30.20,NW,315,6.0,12.0,67,0.00,,,0.00,Weather View 32 v70,2013-01-24 11:31:00,
2013-01-24 06:36:00,-1.0,-9.0,30.20,NNW,337,0.0,12.0,68,0.00,,,0.00,Weather View 32 v70,2013-01-24 11:36:00,
2013-01-24 06:41:00,-1.0,-9.6,30.20,NW,315,2.0,12.0,66,0.00,,,0.00,Weather View 32 v70,2013-01-24 11:41:00,
2013-01-24 06:46:00,-1.0,-9.0,30.20,NW,315,3.0,12.0,68,0.00,,,0.00,Weather View 32 v70,2013-01-24 11:46:00,
2013-01-24 06:51:00,-1.0,-8.7,30.20,WSW,247,0.0,12.0,69,0.00,,,0.00,Weather View 32 v70,2013-01-24 11:51:00,
2013-01-24 06:56:00,-1.0,-8.7,30.21,WNW,292,0.0,12.0,69,0.00,,,0.00,Weather View 32 v70,2013-01-24 11:56:00,
2013-01-24 07:01:00,-1.0,-8.7,30.21,NW,315,0.0,12.0,69,0.00,,,0.00,Weather View 32 v70,2013-01-24 12:01:00,
2013-01-24 07:06:00,-1.0,-8.4,30.21,NW,315,3.0,12.0,70,0.00,,,0.00,Weather View 32 v70,2013-01-24 12:06:00,
2013-01-24 07:11:00,-1.0,-8.7,30.21,SSW,202,3.0,12.0,69,0.00,,,0.00,Weather View 32 v70,2013-01-24 12:11:00,
2013-01-24 07:16:00,-1.0,-8.4,30.21,WNW,292,6.0,12.0,70,0.00,,,0.00,Weather View 32 v70,2013-01-24 12:16:00,
2013-01-24 07:21:00,-1.0,-8.7,30.21,West,270,0.0,12.0,69,0.00,,,0.00,Weather View 32 v70,2013-01-24 12:21:00,
2013-01-24 07:26:00,-1.0,-8.4,30.21,South,180,9.0,10.0,70,0.00,,,0.00,Weather View 32 v70,2013-01-24 12:26:00,
2013-01-24 07:31:00,-1.0,-8.4,30.21,NNW,337,4.0,10.0,70,0.00,,,0.00,Weather View 32 v70,2013-01-24 12:31:00,
2013-01-24 07:36:00,-1.0,-8.4,30.21,NW,315,0.0,10.0,70,0.00,,,0.00,Weather View 32 v70,2013-01-24 12:36:00,
2013-01-24 07:41:00,-1.0,-8.4,30.21,SSW,202,3.0,11.0,70,0.00,,,0.00,Weather View 32 v70,2013-01-24 12:41:00,
2013-01-24 07:46:00,-1.0,-9.0,30.21,WNW,292,3.0,16.0,68,0.00,,,0.00,Weather View 32 v70,2013-01-24 12:46:00,
2013-01-24 07:51:00,-1.0,-9.0,30.21,NW,315,5.0,16.0,68,0.00,,,0.00,Weather View 32 v70,2013-01-24 12:51:00,
2013-01-24 07:56:00,-1.0,-9.6,30.21,NW,315,1.0,16.0,66,0.00,,,0.00,Weather View 32 v70,2013-01-24 12:56:00,
2013-01-24 08:01:00,0.0,-8.6,30.21,North,360,0.0,16.0,66,0.00,,,0.00,Weather View 32 v70,2013-01-24 13:01:00,
2013-01-24 08:06:00,0.0,-9.3,30.21,NW,315,1.0,16.0,64,0.00,,,0.00,Weather View 32 v70,2013-01-24 13:06:00,
2013-01-24 08:11:00,0.0,-9.3,30.21,West,270,1.0,16.0,64,0.00,,,0.00,Weather View 32 v70,2013-01-24 13:11:00,
2013-01-24 08:17:00,1.0,-10.0,30.21,NW,315,9.0,16.0,59,0.00,,,0.00,Weather View 32 v70,2013-01-24 13:17:00,
2013-01-24 08:22:00,1.0,-10.7,30.21,NW,315,7.0,16.0,57,0.00,,,0.00,Weather View 32 v70,2013-01-24 13:22:00,
2013-01-24 08:27:00,2.0,-10.1,30.21,NW,315,4.0,16.0,56,0.00,,,0.00,Weather View 32 v70,2013-01-24 13:27:00,
2013-01-24 08:32:00,2.0,-10.1,30.21,WNW,292,1.0,16.0,56,0.00,,,0.00,Weather View 32 v70,2013-01-24 13:32:00,
2013-01-24 08:37:00,2.0,-10.1,30.21,WNW,292,3.0,16.0,56,0.00,,,0.00,Weather View 32 v70,2013-01-24 13:37:00,
2013-01-24 08:42:00,2.0,-10.4,30.21,SSE,157,1.0,16.0,55,0.00,,,0.00,Weather View 32 v70,2013-01-24 13:42:00,
2013-01-24 08:47:00,3.0,-9.9,30.21,NW,315,12.0,16.0,54,0.00,,,0.00,Weather View 32 v70,2013-01-24 13:47:00,
2013-01-24 08:52:00,3.0,-10.6,30.21,NW,315,4.0,16.0,52,0.00,,,0.00,Weather View 32 v70,2013-01-24 13:52:00,
2013-01-24 08:57:00,3.0,-10.6,30.21,NNW,337,6.0,16.0,52,0.00,,,0.00,Weather View 32 v70,2013-01-24 13:57:00,
2013-01-24 09:02:00,3.0,-11.4,30.21,SSE,157,6.0,16.0,50,0.00,,,0.00,Weather View 32 v70,2013-01-24 14:02:00,
2013-01-24 09:07:00,4.0,-10.5,30.21,WNW,292,5.0,16.0,50,0.00,,,0.00,Weather View 32 v70,2013-01-24 14:07:00,
2013-01-24 09:12:00,4.0,-10.1,30.21,ESE,112,2.0,16.0,51,0.00,,,0.00,Weather View 32 v70,2013-01-24 14:12:00,
2013-01-24 09:17:00,4.0,-10.5,30.21,NW,315,3.0,16.0,50,0.00,,,0.00,Weather View 32 v70,2013-01-24 14:17:00,
2013-01-24 09:22:00,4.0,-10.5,30.21,NW,315,4.0,16.0,50,0.00,,,0.00,Weather View 32 v70,2013-01-24 14:22:00,
2013-01-24 09:27:00,4.0,-11.3,30.20,NNW,337,4.0,18.0,48,0.00,,,0.00,Weather View 32 v70,2013-01-24 14:27:00,
2013-01-24 09:32:00,5.0,-10.4,30.20,NW,315,15.0,18.0,48,0.00,,,0.00,Weather View 32 v70,2013-01-24 14:32:00,
2013-01-24 09:37:00,5.0,-11.3,30.21,NW,315,9.0,18.0,46,0.00,,,0.00,Weather View 32 v70,2013-01-24 14:37:00,
2013-01-24 09:42:00,5.0,-10.4,30.21,SSE,157,0.0,18.0,48,0.00,,,0.00,Weather View 32 v70,2013-01-24 14:42:00,
2013-01-24 09:47:00,5.0,-11.7,30.20,NW,315,5.0,18.0,45,0.00,,,0.00,Weather View 32 v70,2013-01-24 14:47:00,
2013-01-24 09:52:00,6.0,-10.8,30.20,NNE,22,1.0,18.0,45,0.00,,,0.00,Weather View 32 v70,2013-01-24 14:52:00,
2013-01-24 09:57:00,6.0,-11.2,30.20,NW,315,5.0,18.0,44,0.00,,,0.00,Weather View 32 v70,2013-01-24 14:57:00,
2013-01-24 10:02:00,6.0,-12.2,30.20,North,360,2.0,18.0,42,0.00,,,0.00,Weather View 32 v70,2013-01-24 15:02:00,
2013-01-24 10:07:00,7.0,-10.8,30.20,NNE,22,0.0,18.0,43,0.00,,,0.00,Weather View 32 v70,2013-01-24 15:07:00,
2013-01-24 10:12:00,7.0,-10.8,30.20,NW,315,11.0,18.0,43,0.00,,,0.00,Weather View 32 v70,2013-01-24 15:12:00,
2013-01-24 10:17:00,7.0,-10.8,30.20,NNW,337,2.0,21.0,43,0.00,,,0.00,Weather View 32 v70,2013-01-24 15:17:00,
2013-01-24 10:22:00,7.0,-11.2,30.20,NW,315,8.0,21.0,42,0.00,,,0.00,Weather View 32 v70,2013-01-24 15:22:00,
2013-01-24 10:27:00,7.0,-11.2,30.19,North,360,0.0,21.0,42,0.00,,,0.00,Weather View 32 v70,2013-01-24 15:27:00,
2013-01-24 10:32:00,8.0,-10.3,30.19,WNW,292,8.0,21.0,42,0.00,,,0.00,Weather View 32 v70,2013-01-24 15:32:00,
2013-01-24 10:37:00,8.0,-10.3,30.20,SSE,157,2.0,21.0,42,0.00,,,0.00,Weather View 32 v70,2013-01-24 15:37:00,
2013-01-24 10:42:00,8.0,-10.3,30.20,NNW,337,3.0,21.0,42,0.00,,,0.00,Weather View 32 v70,2013-01-24 15:42:00,
2013-01-24 10:48:00,9.0,-9.4,30.19,NNE,22,7.0,21.0,42,0.00,,,0.00,Weather View 32 v70,2013-01-24 15:48:00,
2013-01-24 10:53:00,9.0,-10.9,30.19,NW,315,10.0,21.0,39,0.00,,,0.00,Weather View 32 v70,2013-01-24 15:53:00,
2013-01-24 10:58:00,9.0,-10.4,30.19,SW,225,0.0,21.0,40,0.00,,,0.00,Weather View 32 v70,2013-01-24 15:58:00,
2013-01-24 11:03:00,10.0,-9.0,30.18,NW,315,3.0,21.0,41,0.00,,,0.00,Weather View 32 v70,2013-01-24 16:03:00,
2013-01-24 11:08:00,10.0,-10.0,30.18,NW,315,2.0,21.0,39,0.00,,,0.00,Weather View 32 v70,2013-01-24 16:08:00,
2013-01-24 11:13:00,10.0,-10.5,30.17,NNW,337,4.0,21.0,38,0.00,,,0.00,Weather View 32 v70,2013-01-24 16:13:00,
2013-01-24 11:18:00,10.0,-10.5,30.17,WNW,292,8.0,18.0,38,0.00,,,0.00,Weather View 32 v70,2013-01-24 16:18:00,
2013-01-24 11:23:00,11.0,-10.2,30.17,NW,315,7.0,20.0,37,0.00,,,0.00,Weather View 32 v70,2013-01-24 16:23:00,
2013-01-24 11:28:00,11.0,-9.1,30.17,WSW,247,6.0,20.0,39,0.00,,,0.00,Weather View 32 v70,2013-01-24 16:28:00,
2013-01-24 11:33:00,11.0,-10.2,30.17,WNW,292,5.0,20.0,37,0.00,,,0.00,Weather View 32 v70,2013-01-24 16:33:00,
2013-01-24 11:38:00,11.0,-10.7,30.17,NW,315,8.0,20.0,36,0.00,,,0.00,Weather View 32 v70,2013-01-24 16:38:00,
2013-01-24 11:43:00,12.0,-11.0,30.17,WNW,292,4.0,20.0,34,0.00,,,0.00,Weather View 32 v70,2013-01-24 16:43:00,
2013-01-24 11:48:00,12.0,-10.4,30.17,WNW,292,9.0,20.0,35,0.00,,,0.00,Weather View 32 v70,2013-01-24 16:48:00,
2013-01-24 11:53:00,12.0,-11.0,30.17,NW,315,4.0,21.0,34,0.00,,,0.00,Weather View 32 v70,2013-01-24 16:53:00,
2013-01-24 11:58:00,12.0,-11.0,30.17,North,360,12.0,21.0,34,0.00,,,0.00,Weather View 32 v70,2013-01-24 16:58:00,
2013-01-24 12:03:00,12.0,-10.4,30.15,NW,315,8.0,21.0,35,0.00,,,0.00,Weather View 32 v70,2013-01-24 17:03:00,
2013-01-24 12:08:00,12.0,-11.0,30.15,NW,315,14.0,22.0,34,0.00,,,0.00,Weather View 32 v70,2013-01-24 17:08:00,
2013-01-24 12:13:00,12.0,-11.6,30.15,WNW,292,8.0,22.0,33,0.00,,,0.00,Weather View 32 v70,2013-01-24 17:13:00,
2013-01-24 12:18:00,12.0,-11.0,30.15,NW,315,7.0,22.0,34,0.00,,,0.00,Weather View 32 v70,2013-01-24 17:18:00,
2013-01-24 12:23:00,13.0,-9.5,30.15,NW,315,10.0,22.0,35,0.00,,,0.00,Weather View 32 v70,2013-01-24 17:23:00,
2013-01-24 12:28:00,13.0,-10.7,30.15,WNW,292,3.0,22.0,33,0.00,,,0.00,Weather View 32 v70,2013-01-24 17:28:00,
2013-01-24 12:33:00,13.0,-10.7,30.15,NNW,337,12.0,22.0,33,0.00,,,0.00,Weather View 32 v70,2013-01-24 17:33:00,
2013-01-24 12:38:00,13.0,-10.7,30.15,WNW,292,4.0,22.0,33,0.00,,,0.00,Weather View 32 v70,2013-01-24 17:38:00,
2013-01-24 12:43:00,14.0,-9.8,30.15,NNW,337,1.0,22.0,33,0.00,,,0.00,Weather View 32 v70,2013-01-24 17:43:00,
2013-01-24 12:48:00,13.0,-11.3,30.15,NNW,337,12.0,27.0,32,0.00,,,0.00,Weather View 32 v70,2013-01-24 17:48:00,
2013-01-24 12:53:00,13.0,-10.1,30.15,NW,315,5.0,27.0,34,0.00,,,0.00,Weather View 32 v70,2013-01-24 17:53:00,
2013-01-24 12:58:00,13.0,-10.1,30.15,NNE,22,3.0,27.0,34,0.00,,,0.00,Weather View 32 v70,2013-01-24 17:58:00,
2013-01-24 13:03:00,14.0,-9.2,30.15,WNW,292,7.0,27.0,34,0.00,,,0.00,Weather View 32 v70,2013-01-24 18:03:00,
2013-01-24 13:08:00,14.0,-10.4,30.15,NW,315,13.0,27.0,32,0.00,,,0.00,Weather View 32 v70,2013-01-24 18:08:00,
2013-01-24 13:13:00,14.0,-9.8,30.15,SSW,202,5.0,27.0,33,0.00,,,0.00,Weather View 32 v70,2013-01-24 18:13:00,
2013-01-24 13:18:00,14.0,-10.4,30.15,NW,315,7.0,27.0,32,0.00,,,0.00,Weather View 32 v70,2013-01-24 18:18:00,
2013-01-24 13:23:00,14.0,-10.4,30.14,NW,315,15.0,27.0,32,0.00,,,0.00,Weather View 32 v70,2013-01-24 18:23:00,
2013-01-24 13:28:00,14.0,-10.4,30.14,NW,315,9.0,27.0,32,0.00,,,0.00,Weather View 32 v70,2013-01-24 18:28:00,
2013-01-24 13:33:00,15.0,-10.9,30.13,North,360,4.0,27.0,30,0.00,,,0.00,Weather View 32 v70,2013-01-24 18:33:00,
2013-01-24 13:38:00,15.0,-10.9,30.13,NW,315,10.0,39.0,30,0.00,,,0.00,Weather View 32 v70,2013-01-24 18:38:00,
2013-01-24 13:43:00,15.0,-10.2,30.13,NW,315,4.0,39.0,31,0.00,,,0.00,Weather View 32 v70,2013-01-24 18:43:00,
2013-01-24 13:49:00,15.0,-11.5,30.13,NNW,337,10.0,39.0,29,0.00,,,0.00,Weather View 32 v70,2013-01-24 18:49:00,
2013-01-24 13:54:00,15.0,-11.5,30.12,North,360,3.0,39.0,29,0.00,,,0.00,Weather View 32 v70,2013-01-24 18:54:00,
2013-01-24 13:59:00,15.0,-10.9,30.12,West,270,4.0,39.0,30,0.00,,,0.00,Weather View 32 v70,2013-01-24 18:59:00,
2013-01-24 14:04:00,15.0,-11.5,30.13,NW,315,7.0,39.0,29,0.00,,,0.00,Weather View 32 v70,2013-01-24 19:04:00,
2013-01-24 14:09:00,16.0,-10.0,30.13,WNW,292,12.0,39.0,30,0.00,,,0.00,Weather View 32 v70,2013-01-24 19:09:00,
2013-01-24 14:14:00,16.0,-10.0,30.13,NW,315,6.0,39.0,30,0.00,,,0.00,Weather View 32 v70,2013-01-24 19:14:00,
2013-01-24 14:19:00,16.0,-9.3,30.13,South,180,11.0,39.0,31,0.00,,,0.00,Weather View 32 v70,2013-01-24 19:19:00,
2013-01-24 14:24:00,16.0,-9.3,30.13,NNW,337,9.0,39.0,31,0.00,,,0.00,Weather View 32 v70,2013-01-24 19:24:00,
2013-01-24 14:29:00,16.0,-9.3,30.13,NW,315,9.0,39.0,31,0.00,,,0.00,Weather View 32 v70,2013-01-24 19:29:00,
2013-01-24 14:34:00,16.0,-9.3,30.13,NW,315,5.0,39.0,31,0.00,,,0.00,Weather View 32 v70,2013-01-24 19:34:00,
2013-01-24 14:39:00,15.0,-10.2,30.13,NW,315,7.0,28.0,31,0.00,,,0.00,Weather View 32 v70,2013-01-24 19:39:00,
2013-01-24 14:44:00,15.0,-10.2,30.13,WNW,292,5.0,28.0,31,0.00,,,0.00,Weather View 32 v70,2013-01-24 19:44:00,
2013-01-24 14:49:00,16.0,-9.3,30.13,NW,315,8.0,28.0,31,0.00,,,0.00,Weather View 32 v70,2013-01-24 19:49:00,
2013-01-24 14:54:00,16.0,-9.3,30.13,NW,315,14.0,25.0,31,0.00,,,0.00,Weather View 32 v70,2013-01-24 19:54:00,
2013-01-24 14:59:00,16.0,-10.0,30.13,NNW,337,12.0,25.0,30,0.00,,,0.00,Weather View 32 v70,2013-01-24 19:59:00,
2013-01-24 15:04:00,16.0,-10.0,30.14,NW,315,0.0,25.0,30,0.00,,,0.00,Weather View 32 v70,2013-01-24 20:04:00,
2013-01-24 15:09:00,16.0,-10.0,30.14,North,360,5.0,25.0,30,0.00,,,0.00,Weather View 32 v70,2013-01-24 20:09:00,
2013-01-24 15:14:00,16.0,-10.0,30.13,NW,315,17.0,25.0,30,0.00,,,0.00,Weather View 32 v70,2013-01-24 20:14:00,
2013-01-24 15:19:00,16.0,-10.7,30.13,NNE,22,6.0,25.0,29,0.00,,,0.00,Weather View 32 v70,2013-01-24 20:19:00,
2013-01-24 15:24:00,16.0,-10.0,30.13,NNW,337,2.0,25.0,30,0.00,,,0.00,Weather View 32 v70,2013-01-24 20:24:00,
2013-01-24 15:29:00,16.0,-10.0,30.13,North,360,0.0,25.0,30,0.00,,,0.00,Weather View 32 v70,2013-01-24 20:29:00,
2013-01-24 15:34:00,16.0,-10.0,30.14,NW,315,13.0,25.0,30,0.00,,,0.00,Weather View 32 v70,2013-01-24 20:34:00,
2013-01-24 15:39:00,16.0,-10.7,30.14,South,180,4.0,27.0,29,0.00,,,0.00,Weather View 32 v70,2013-01-24 20:39:00,
2013-01-24 15:44:00,16.0,-11.4,30.14,WNW,292,4.0,27.0,28,0.00,,,0.00,Weather View 32 v70,2013-01-24 20:44:00,
2013-01-24 15:49:00,16.0,-12.1,30.14,North,360,8.0,27.0,27,0.00,,,0.00,Weather View 32 v70,2013-01-24 20:49:00,
2013-01-24 15:54:00,16.0,-12.1,30.14,NW,315,8.0,27.0,27,0.00,,,0.00,Weather View 32 v70,2013-01-24 20:54:00,
2013-01-24 15:59:00,16.0,-11.4,30.14,NW,315,7.0,27.0,28,0.00,,,0.00,Weather View 32 v70,2013-01-24 20:59:00,
2013-01-24 16:04:00,16.0,-10.0,30.14,West,270,4.0,27.0,30,0.00,,,0.00,Weather View 32 v70,2013-01-24 21:04:00,
2013-01-24 16:09:00,16.0,-10.7,30.14,WNW,292,6.0,27.0,29,0.00,,,0.00,Weather View 32 v70,2013-01-24 21:09:00,
2013-01-24 16:14:00,16.0,-11.4,30.14,NW,315,14.0,27.0,28,0.00,,,0.00,Weather View 32 v70,2013-01-24 21:14:00,
2013-01-24 16:20:00,16.0,-10.7,30.14,NW,315,4.0,27.0,29,0.00,,,0.00,Weather View 32 v70,2013-01-24 21:20:00,
2013-01-24 16:25:00,16.0,-10.7,30.15,NW,315,4.0,27.0,29,0.00,,,0.00,Weather View 32 v70,2013-01-24 21:25:00,
2013-01-24 16:30:00,16.0,-10.7,30.15,WNW,292,5.0,27.0,29,0.00,,,0.00,Weather View 32 v70,2013-01-24 21:30:00,
2013-01-24 16:35:00,15.0,-11.5,30.16,NNW,337,11.0,27.0,29,0.00,,,0.00,Weather View 32 v70,2013-01-24 21:35:00,
2013-01-24 16:40:00,15.0,-11.5,30.16,NW,315,5.0,24.0,29,0.00,,,0.00,Weather View 32 v70,2013-01-24 21:40:00,
2013-01-24 16:45:00,15.0,-11.5,30.16,NW,315,9.0,24.0,29,0.00,,,0.00,Weather View 32 v70,2013-01-24 21:45:00,
2013-01-24 16:50:00,15.0,-11.5,30.16,NNW,337,6.0,24.0,29,0.00,,,0.00,Weather View 32 v70,2013-01-24 21:50:00,
2013-01-24 16:55:00,15.0,-10.2,30.17,ESE,112,4.0,24.0,31,0.00,,,0.00,Weather View 32 v70,2013-01-24 21:55:00,
2013-01-24 17:00:00,15.0,-10.2,30.17,NW,315,11.0,24.0,31,0.00,,,0.00,Weather View 32 v70,2013-01-24 22:00:00,
2013-01-24 17:05:00,15.0,-10.2,30.17,West,270,0.0,24.0,31,0.00,,,0.00,Weather View 32 v70,2013-01-24 22:05:00,
2013-01-24 17:10:00,14.0,-10.4,30.17,NNW,337,10.0,24.0,32,0.00,,,0.00,Weather View 32 v70,2013-01-24 22:10:00,
2013-01-24 17:15:00,14.0,-11.1,30.17,NW,315,10.0,24.0,31,0.00,,,0.00,Weather View 32 v70,2013-01-24 22:15:00,
2013-01-24 17:20:00,14.0,-11.7,30.17,NW,315,6.0,23.0,30,0.00,,,0.00,Weather View 32 v70,2013-01-24 22:20:00,
2013-01-24 17:25:00,14.0,-11.1,30.17,North,360,5.0,21.0,31,0.00,,,0.00,Weather View 32 v70,2013-01-24 22:25:00,
2013-01-24 17:30:00,14.0,-11.1,30.17,NW,315,7.0,20.0,31,0.00,,,0.00,Weather View 32 v70,2013-01-24 22:30:00,
2013-01-24 17:35:00,14.0,-11.7,30.18,NW,315,9.0,20.0,30,0.00,,,0.00,Weather View 32 v70,2013-01-24 22:35:00,
2013-01-24 17:40:00,14.0,-11.7,30.18,NW,315,11.0,20.0,30,0.00,,,0.00,Weather View 32 v70,2013-01-24 22:40:00,
2013-01-24 17:45:00,14.0,-11.1,30.18,NW,315,1.0,20.0,31,0.00,,,0.00,Weather View 32 v70,2013-01-24 22:45:00,
2013-01-24 17:50:00,14.0,-11.1,30.18,West,270,1.0,19.0,31,0.00,,,0.00,Weather View 32 v70,2013-01-24 22:50:00,
2013-01-24 17:55:00,14.0,-10.4,30.18,NW,315,5.0,19.0,32,0.00,,,0.00,Weather View 32 v70,2013-01-24 22:55:00,
2013-01-24 18:00:00,14.0,-10.4,30.18,NW,315,5.0,19.0,32,0.00,,,0.00,Weather View 32 v70,2013-01-24 23:00:00,
2013-01-24 18:05:00,14.0,-10.4,30.18,WNW,292,5.0,19.0,32,0.00,,,0.00,Weather View 32 v70,2013-01-24 23:05:00,
2013-01-24 18:10:00,14.0,-10.4,30.18,NW,315,6.0,19.0,32,0.00,,,0.00,Weather View 32 v70,2013-01-24 23:10:00,
2013-01-24 18:15:00,14.0,-9.8,30.18,West,270,3.0,18.0,33,0.00,,,0.00,Weather View 32 v70,2013-01-24 23:15:00,
2013-01-24 18:20:00,14.0,-9.8,30.18,SSE,157,3.0,18.0,33,0.00,,,0.00,Weather View 32 v70,2013-01-24 23:20:00,
2013-01-24 18:25:00,14.0,-10.4,30.18,NW,315,3.0,18.0,32,0.00,,,0.00,Weather View 32 v70,2013-01-24 23:25:00,
2013-01-24 18:30:00,14.0,-10.4,30.18,WNW,292,14.0,19.0,32,0.00,,,0.00,Weather View 32 v70,2013-01-24 23:30:00,
2013-01-24 18:35:00,14.0,-10.4,30.18,WNW,292,15.0,19.0,32,0.00,,,0.00,Weather View 32 v70,2013-01-24 23:35:00,
2013-01-24 18:40:00,14.0,-10.4,30.18,WNW,292,5.0,24.0,32,0.00,,,0.00,Weather View 32 v70,2013-01-24 23:40:00,
2013-01-24 18:45:00,14.0,-11.1,30.20,SW,225,6.0,24.0,31,0.00,,,0.00,Weather View 32 v70,2013-01-24 23:45:00,
2013-01-24 18:51:00,14.0,-11.7,30.20,WNW,292,5.0,24.0,30,0.00,,,0.00,Weather View 32 v70,2013-01-24 23:51:00,
2013-01-24 18:56:00,14.0,-10.4,30.20,South,180,3.0,24.0,32,0.00,,,0.00,Weather View 32 v70,2013-01-24 23:56:00,
2013-01-24 19:01:00,14.0,-11.7,30.20,NW,315,5.0,24.0,30,0.00,,,0.00,Weather View 32 v70,2013-01-25 00:01:00,
2013-01-24 19:06:00,14.0,-11.7,30.20,NW,315,10.0,24.0,30,0.00,,,0.00,Weather View 32 v70,2013-01-25 00:06:00,
2013-01-24 19:11:00,14.0,-11.1,30.20,NNW,337,8.0,24.0,31,0.00,,,0.00,Weather View 32 v70,2013-01-25 00:11:00,
2013-01-24 19:16:00,14.0,-10.4,30.21,WNW,292,8.0,24.0,32,0.00,,,0.00,Weather View 32 v70,2013-01-25 00:16:00,
2013-01-24 19:21:00,14.0,-10.4,30.21,ESE,112,4.0,24.0,32,0.00,,,0.00,Weather View 32 v70,2013-01-25 00:21:00,
2013-01-24 19:26:00,14.0,-11.1,30.21,NW,315,5.0,24.0,31,0.00,,,0.00,Weather View 32 v70,2013-01-25 00:26:00,
2013-01-24 19:31:00,14.0,-9.8,30.21,NW,315,5.0,24.0,33,0.00,,,0.00,Weather View 32 v70,2013-01-25 00:31:00,
2013-01-24 19:36:00,14.0,-9.8,30.21,West,270,4.0,24.0,33,0.00,,,0.00,Weather View 32 v70,2013-01-25 00:36:00,
2013-01-24 19:41:00,13.0,-10.1,30.21,South,180,2.0,24.0,34,0.00,,,0.00,Weather View 32 v70,2013-01-25 00:41:00,
2013-01-24 19:46:00,13.0,-11.3,30.21,WNW,292,10.0,30.0,32,0.00,,,0.00,Weather View 32 v70,2013-01-25 00:46:00,
2013-01-24 19:51:00,13.0,-10.1,30.21,North,360,3.0,30.0,34,0.00,,,0.00,Weather View 32 v70,2013-01-25 00:51:00,
2013-01-24 19:56:00,13.0,-10.1,30.21,NNW,337,3.0,30.0,34,0.00,,,0.00,Weather View 32 v70,2013-01-25 00:56:00,
2013-01-24 20:01:00,13.0,-10.1,30.21,SW,225,3.0,30.0,34,0.00,,,0.00,Weather View 32 v70,2013-01-25 01:01:00,
2013-01-24 20:06:00,13.0,-10.1,30.21,SW,225,6.0,30.0,34,0.00,,,0.00,Weather View 32 v70,2013-01-25 01:06:00,
2013-01-24 20:11:00,13.0,-10.1,30.21,NW,315,6.0,30.0,34,0.00,,,0.00,Weather View 32 v70,2013-01-25 01:11:00,
2013-01-24 20:16:00,13.0,-10.1,30.21,NW,315,8.0,30.0,34,0.00,,,0.00,Weather View 32 v70,2013-01-25 01:16:00,
2013-01-24 20:21:00,13.0,-10.1,30.21,SSE,157,7.0,30.0,34,0.00,,,0.00,Weather View 32 v70,2013-01-25 01:21:00,
2013-01-24 20:26:00,13.0,-9.5,30.21,WNW,292,7.0,30.0,35,0.00,,,0.00,Weather View 32 v70,2013-01-25 01:26:00,
2013-01-24 20:31:00,13.0,-10.1,30.21,WNW,292,8.0,30.0,34,0.00,,,0.00,Weather View 32 v70,2013-01-25 01:31:00,
2013-01-24 20:36:00,12.0,-11.0,30.22,WNW,292,13.0,30.0,34,0.00,,,0.00,Weather View 32 v70,2013-01-25 01:36:00,
2013-01-24 20:41:00,12.0,-11.0,30.22,NW,315,10.0,30.0,34,0.00,,,0.00,Weather View 32 v70,2013-01-25 01:41:00,
2013-01-24 20:46:00,12.0,-9.8,30.23,NW,315,2.0,26.0,36,0.00,,,0.00,Weather View 32 v70,2013-01-25 01:46:00,
2013-01-24 20:51:00,12.0,-9.3,30.23,WNW,292,6.0,26.0,37,0.00,,,0.00,Weather View 32 v70,2013-01-25 01:51:00,
2013-01-24 20:56:00,12.0,-9.8,30.23,WNW,292,5.0,26.0,36,0.00,,,0.00,Weather View 32 v70,2013-01-25 01:56:00,
2013-01-24 21:01:00,12.0,-9.3,30.23,NW,315,18.0,26.0,37,0.00,,,0.00,Weather View 32 v70,2013-01-25 02:01:00,
2013-01-24 21:06:00,12.0,-9.8,30.23,NNW,337,6.0,26.0,36,0.00,,,0.00,Weather View 32 v70,2013-01-25 02:06:00,
2013-01-24 21:11:00,12.0,-9.8,30.23,NNW,337,8.0,26.0,36,0.00,,,0.00,Weather View 32 v70,2013-01-25 02:11:00,
2013-01-24 21:16:00,12.0,-9.3,30.24,NW,315,11.0,25.0,37,0.00,,,0.00,Weather View 32 v70,2013-01-25 02:16:00,
2013-01-24 21:21:00,12.0,-9.8,30.24,NW,315,5.0,25.0,36,0.00,,,0.00,Weather View 32 v70,2013-01-25 02:21:00,
2013-01-24 21:26:00,12.0,-9.8,30.25,WNW,292,5.0,25.0,36,0.00,,,0.00,Weather View 32 v70,2013-01-25 02:26:00,
2013-01-24 21:31:00,12.0,-9.3,30.25,NNW,337,3.0,25.0,37,0.00,,,0.00,Weather View 32 v70,2013-01-25 02:31:00,
2013-01-24 21:36:00,12.0,-9.8,30.25,WSW,247,5.0,25.0,36,0.00,,,0.00,Weather View 32 v70,2013-01-25 02:36:00,
2013-01-24 21:41:00,12.0,-8.7,30.25,NW,315,4.0,22.0,38,0.00,,,0.00,Weather View 32 v70,2013-01-25 02:41:00,
2013-01-24 21:47:00,11.0,-10.2,30.25,NW,315,1.0,22.0,37,0.00,,,0.00,Weather View 32 v70,2013-01-25 02:47:00,
2013-01-24 21:52:00,11.0,-9.6,30.25,West,270,0.0,22.0,38,0.00,,,0.00,Weather View 32 v70,2013-01-25 02:52:00,
2013-01-24 21:57:00,11.0,-9.6,30.25,WNW,292,8.0,22.0,38,0.00,,,0.00,Weather View 32 v70,2013-01-25 02:57:00,
2013-01-24 22:02:00,11.0,-9.6,30.25,WNW,292,0.0,22.0,38,0.00,,,0.00,Weather View 32 v70,2013-01-25 03:02:00,
2013-01-24 22:07:00,11.0,-9.6,30.26,NW,315,5.0,23.0,38,0.00,,,0.00,Weather View 32 v70,2013-01-25 03:07:00,
2013-01-24 22:12:00,11.0,-9.1,30.26,WNW,292,3.0,25.0,39,0.00,,,0.00,Weather View 32 v70,2013-01-25 03:12:00,
2013-01-24 22:17:00,11.0,-9.1,30.25,WSW,247,5.0,25.0,39,0.00,,,0.00,Weather View 32 v70,2013-01-25 03:17:00,
2013-01-24 22:22:00,11.0,-9.1,30.25,NW,315,2.0,25.0,39,0.00,,,0.00,Weather View 32 v70,2013-01-25 03:22:00,
2013-01-24 22:27:00,10.0,-9.5,30.25,NW,315,0.0,25.0,40,0.00,,,0.00,Weather View 32 v70,2013-01-25 03:27:00,
2013-01-24 22:32:00,10.0,-9.5,30.25,North,360,3.0,25.0,40,0.00,,,0.00,Weather View 32 v70,2013-01-25 03:32:00,
2013-01-24 22:37:00,10.0,-9.5,30.25,NW,315,7.0,25.0,40,0.00,,,0.00,Weather View 32 v70,2013-01-25 03:37:00,
2013-01-24 22:42:00,10.0,-8.5,30.25,South,180,4.0,25.0,42,0.00,,,0.00,Weather View 32 v70,2013-01-25 03:42:00,
2013-01-24 22:47:00,10.0,-9.0,30.27,SSW,202,0.0,25.0,41,0.00,,,0.00,Weather View 32 v70,2013-01-25 03:47:00,
2013-01-24 22:52:00,10.0,-9.0,30.27,WNW,292,3.0,25.0,41,0.00,,,0.00,Weather View 32 v70,2013-01-25 03:52:00,
2013-01-24 22:57:00,10.0,-8.5,30.28,NW,315,7.0,25.0,42,0.00,,,0.00,Weather View 32 v70,2013-01-25 03:57:00,
2013-01-24 23:02:00,10.0,-9.5,30.28,NW,315,7.0,25.0,40,0.00,,,0.00,Weather View 32 v70,2013-01-25 04:02:00,
2013-01-24 23:07:00,10.0,-10.0,30.28,NW,315,3.0,25.0,39,0.00,,,0.00,Weather View 32 v70,2013-01-25 04:07:00,
2013-01-24 23:12:00,10.0,-10.0,30.28,North,360,4.0,16.0,39,0.00,,,0.00,Weather View 32 v70,2013-01-25 04:12:00,
2013-01-24 23:17:00,10.0,-9.5,30.28,NW,315,5.0,19.0,40,0.00,,,0.00,Weather View 32 v70,2013-01-25 04:17:00,
2013-01-24 23:22:00,10.0,-9.0,30.28,SSW,202,4.0,19.0,41,0.00,,,0.00,Weather View 32 v70,2013-01-25 04:22:00,
2013-01-24 23:27:00,10.0,-9.5,30.27,WNW,292,8.0,20.0,40,0.00,,,0.00,Weather View 32 v70,2013-01-25 04:27:00,
2013-01-24 23:32:00,10.0,-9.5,30.27,South,180,2.0,21.0,40,0.00,,,0.00,Weather View 32 v70,2013-01-25 04:32:00,
2013-01-24 23:37:00,10.0,-9.0,30.28,SSW,202,2.0,21.0,41,0.00,,,0.00,Weather View 32 v70,2013-01-25 04:37:00,
2013-01-24 23:42:00,10.0,-9.0,30.28,WSW,247,2.0,21.0,41,0.00,,,0.00,Weather View 32 v70,2013-01-25 04:42:00,
2013-01-24 23:47:00,10.0,-8.5,30.27,East,90,2.0,21.0,42,0.00,,,0.00,Weather View 32 v70,2013-01-25 04:47:00,
2013-01-24 23:52:00,10.0,-8.5,30.27,WNW,292,6.0,22.0,42,0.00,,,0.00,Weather View 32 v70,2013-01-25 04:52:00,
2013-01-24 23:57:00,10.0,-8.5,30.29,NNE,22,0.0,22.0,42,0.00,,,0.00,Weather View 32 v70,2013-01-25 04:57:00,